{"data":{"norad_id":63979,"intl_designator":"2025-099AD","name":"STARLINK-34045","alt_names":[],"object_type":"PAYLOAD","status":"ACTIVE","operator":null,"country":"US","launch_date":"2025-05-13","launch_site_code":"AFETR","launch_vehicle":null,"mission":null,"orbit_class":"UNKNOWN","rcs_meters":null,"size_class":null,"mass_kg":null,"dimensions":null,"purposes":["comms"],"wikipedia_slug":null,"has_3d_model":false,"image_url":null,"decayed_at":null,"tle_current":{"epoch":"2026-09-20T09:13:46.523136Z","epoch_age_seconds":153703,"freshness":"FRESH","line1":"1 63979U 25099AD  26263.38456624  .00007648  00000+0  28709-3 0  9999","line2":"2 63979  42.9997 153.0972 0001254 258.6406 101.4305 15.27589491 77061","mean_motion":15.27589491,"eccentricity":0.0001254,"inclination_deg":42.9997,"raan_deg":153.0972,"arg_perigee_deg":258.6406,"mean_anomaly_deg":101.4305,"bstar":0.00028709,"rev_number":7706,"period_min":94.266163029005,"perigee_km":482.16028754577,"apogee_km":483.88106589109,"semimajor_km":6861.1576767184,"source":"CELESTRAK","updated_at":"2026-09-21T09:00:35.179363Z"}}}